Location: Unspecified
(0.0000°N, 0.0000°E)
Time: 00:20:09
(UTC+01:00)

DELTA 2 R/B (1) - Visible Passes

Search period start: 07 February 2016 00:00
Search period end: 17 February 2016 00:00
Orbit: 790 x 804 km, 39.6° (Epoch: 06 February)

Date Brightness Start Highest point End Pass type
(mag) Time Alt. Az. Time Alt. Az. Time Alt. Az.
08 Feb 5.8 21:30:57 10° S 21:32:07 14° S 21:32:07 14° S visible
09 Feb 5.4 21:00:28 10° S 21:03:09 18° SSE 21:03:09 18° SSE visible
10 Feb 5.3 20:30:02 10° S 20:33:33 17° SE 20:34:17 17° SE visible
10 Feb 6.3 22:14:26 10° SW 22:15:04 13° SW 22:15:04 13° SW visible
11 Feb 5.4 19:59:41 10° S 20:02:45 15° SE 20:05:28 11° ESE visible
11 Feb 5.3 21:43:39 10° SW 21:46:17 29° SW 21:46:17 29° SW visible
12 Feb 3.8 21:12:53 10° SW 21:17:33 64° SW 21:17:33 64° SW visible
13 Feb 3.4 20:42:07 10° SW 20:47:40 80° SE 20:48:54 55° ENE visible
14 Feb 3.5 20:11:23 10° SW 20:16:55 71° SE 20:20:17 24° ENE visible
14 Feb 6.2 21:59:50 10° W 22:01:06 14° WNW 22:01:06 14° WNW visible
15 Feb 3.7 19:40:40 10° SW 19:46:09 62° SE 19:51:36 10° ENE visible
15 Feb 5.6 21:28:41 10° W 21:32:31 19° NW 21:32:33 19° NW visible
16 Feb 5.6 06:33:12 10° N 06:37:31 23° NE 06:41:50 10° E visible
16 Feb 5.5 20:57:36 10° W 21:01:44 21° NW 21:04:01 17° N visible
